Weather History for KCDJ - July, 2013

Change the Weather History Date:

Wednesday, July 17, 2013

  Actual Average (KIRK) Record (KIRK)
Temperature  
Mean Temperature 82 °F 75 °F  
Max Temperature 93 °F 86 °F 106 °F (1936)
Min Temperature 72 °F 65 °F 51 °F (2014)
Degree Days  
Heating Degree Days 0 0  
Month to date heating degree days 0  
Since 1 June heating degree days 16  
Since 1 July heating degree days 0  
Cooling Degree Days 16 10  
Month to date cooling degree days 164  
Year to date cooling degree days 418  
Since 1 June cooling degree days 356  
Growing Degree Days 32 (Base 50)    
Moisture  
Dew Point 72 °F    
Average Humidity 74    
Maximum Humidity 94    
Minimum Humidity 48    
Precipitation  
Precipitation 0.29 in 0.16 in 2.31 in (1946)
Month to date precipitation 2.41  
Year to date precipitation 21.34  
Sea Level Pressure  
Sea Level Pressure 30.24 in    
Wind  
Wind Speed 1 mph (South)    
Max Wind Speed 10 mph    
Max Gust Speed -    
T = Trace of Precipitation, MM = Missing Value Source: NWS Daily Summary

Daily Weather History Graph

Daily Weather History Graph

Search for Another Location

Airport or City:

Trip Planner

Search our weather history database for the weather conditions in past years. The results will help you decide how hot, cold, wet, or windy it might be!

Date:

Astronomy

Jul. 17, 2013 Rise Set
Actual Time 6:00 AM CDT 8:40 PM CDT
Civil Twilight 5:28 AM CDT 9:11 PM CDT
Nautical Twilight 4:49 AM CDT 9:50 PM CDT
Astronomical Twilight 4:04 AM CDT 10:35 PM CDT
Moon 3:30 PM CDT (7/17) 1:07 AM CDT (7/17)
Length of Visible Light 15h 42m
Length of Day
14h 39m
Waxing Gibbous, 67% of the Moon is Illuminated
Jul 17
Waxing Gibbous
Jul 22
Full
Jul 29
Last Quarter
Aug 6
New
Aug 14
First Quarter

Hourly Weather History & Observations

Time (CDT) Temp. Heat Index Dew Point Humidity Pressure Visibility Wind Dir Wind Speed Gust Speed Precip Events Conditions
12:52 AM 75.9 °F - 70.0 °F 82% 30.25 in - Calm Calm - N/A   Unknown
1:52 AM 75.9 °F - 70.0 °F 82% 30.25 in - Calm Calm - N/A   Unknown
2:52 AM 75.0 °F - 70.0 °F 84% 30.25 in - Calm Calm - N/A   Unknown
3:52 AM 73.9 °F - 70.0 °F 87% 30.26 in - Calm Calm - N/A   Unknown
4:52 AM 73.0 °F - 69.1 °F 87% 30.26 in - Calm Calm - N/A   Unknown
5:52 AM 72.0 °F - 69.1 °F 91% 30.26 in - Calm Calm - N/A   Unknown
6:52 AM 75.0 °F - 70.0 °F 84% 30.27 in - Calm Calm - N/A   Unknown
7:52 AM 79.0 °F - 71.1 °F 77% 30.28 in - Calm Calm - N/A   Unknown
8:52 AM 82.0 °F 86.3 °F 71.1 °F 69% 30.29 in - South 6.9 mph - N/A   Unknown
9:52 AM 84.9 °F 90.1 °F 71.1 °F 63% 30.29 in - SSE 3.5 mph - N/A   Unknown
10:52 AM 88.0 °F 93.8 °F 71.1 °F 57% 30.28 in - Variable 3.5 mph - N/A   Unknown
11:52 AM 91.9 °F 97.4 °F 70.0 °F 48% 30.27 in - Variable 3.5 mph - N/A   Unknown
12:52 PM 91.0 °F 96.6 °F 70.0 °F 50% 30.27 in - South 4.6 mph - N/A   Unknown
1:52 PM 91.9 °F 97.4 °F 70.0 °F 48% 30.25 in - South 6.9 mph - N/A   Unknown
2:52 PM 91.9 °F 97.4 °F 70.0 °F 48% 30.23 in - SSE 5.8 mph - N/A   Unknown
3:52 PM 84.0 °F 90.2 °F 73.0 °F 69% 30.24 in - SSE 10.4 mph - 0.03 in   Unknown
4:52 PM 80.1 °F 84.2 °F 73.0 °F 79% 30.23 in - NW 3.5 mph - 0.26 in   Unknown
5:52 PM 82.9 °F 88.8 °F 73.0 °F 72% 30.21 in - Calm Calm - N/A   Unknown
6:52 PM 87.1 °F 95.4 °F 73.9 °F 65% 30.18 in - Calm Calm - N/A   Unknown
7:52 PM 84.0 °F 93.7 °F 77.0 °F 79% 30.18 in - Calm Calm - N/A   Unknown
8:52 PM 80.1 °F 85.1 °F 75.0 °F 85% 30.18 in - Calm Calm - N/A   Unknown
9:52 PM 78.1 °F - 73.9 °F 87% 30.18 in - Calm Calm - N/A   Unknown
10:52 PM 75.9 °F - 73.0 °F 91% 30.18 in - Calm Calm - N/A   Unknown
11:52 PM 75.0 °F - 73.0 °F 94% 30.18 in - Calm Calm - N/A   Unknown